Location: Auckland
(36.8670°S, 174.7670°E)
Time: 20:55:55
(UTC+12:00)

Tiros 1 despin weight - Pass Details

Date: 24 July 2019
Orbit: 594 x 642 km, 48.2° (Epoch: 26 August)

Event Time Altitude Azimuth Distance (km) Brightness Sun altitude
Rises 01:06:01 0° 261° (W) 2,847 - -71.2°
Reaches altitude 10° 01:08:42 10° 246° (WSW) 1,948 - -70.9°
Maximum altitude 01:12:16 23° 193° (SSW) 1,311 - -70.6°
Drops below altitude 10° 01:15:51 10° 140° (SE) 1,963 - -70.2°
Sets 01:18:34 0° 125° (SE) 2,875 - -69.8°
